Jaipur, India

11:38 AM IST on April 30, 2017 (GMT +0530)
Jaipur

Weather History for VIJP - October, 2013

Change the Weather History Date:

Thursday, October 10, 2013

  Actual Average Record
Temperature  
Mean Temperature 82 °F -  
Max Temperature 91 °F - - ()
Min Temperature 74 °F - - ()
Cooling Degree Days 18    
Growing Degree Days 32 (Base 50)    
Moisture  
Dew Point 70 °F    
Average Humidity 66    
Maximum Humidity 89    
Minimum Humidity 34    
Precipitation  
Precipitation 0.00 in - - ()
Sea Level Pressure  
Sea Level Pressure 29.89 in    
Wind  
Wind Speed 4 mph ()    
Max Wind Speed 10 mph    
Max Gust Speed -    
Visibility 1.9 miles    
Events      
T = Trace of Precipitation, MM = Missing Value Source: Averaged Metar Reports

Daily Weather History Graph

Daily Weather History Graph

Search for Another Location

Airport or City:

Trip Planner

Search our weather history database for the weather conditions in past years. The results will help you decide how hot, cold, wet, or windy it might be!

Date:

Astronomy

Oct. 10, 2013 Rise Set
Actual Time 6:23 AM IST 6:03 PM IST
Civil Twilight 6:00 AM IST 6:26 PM IST
Nautical Twilight 5:33 AM IST 6:53 PM IST
Astronomical Twilight 5:06 AM IST 7:20 PM IST
Moon 11:29 AM IST (10/10) 10:32 PM IST (10/10)
Length of Visible Light 12h 26m
Length of Day
11h 40m
Waxing Crescent, 31% of the Moon is Illuminated
Oct 10
Waxing Crescent
Oct 12
First Quarter
Oct 19
Full
Oct 27
Last Quarter
Nov 3
New

Hourly Weather History & Observations

Time (IST) Temp. Heat Index Dew Point Humidity Pressure Visibility Wind Dir Wind Speed Gust Speed Precip Events Conditions
12:00 AM 77.0 °F - 71.6 °F 83% 29.92 in 1.9 mi Calm Calm - N/A   Haze
1:00 AM 77.0 °F - 71.6 °F 83% 29.92 in 1.9 mi Calm Calm - N/A   Haze
2:00 AM 77.0 °F - 71.6 °F 83% 29.89 in 1.9 mi ENE 4.6 mph - N/A   Haze
2:30 AM 78 °F - 71 °F 73% 29.83 in 1 mi Calm Calm - -   Haze
3:00 AM 77.0 °F - 71.6 °F 83% 29.89 in 1.9 mi East 5.8 mph - N/A   Haze
4:00 AM 77.0 °F - 71.6 °F 83% 29.89 in 1.9 mi ENE 4.6 mph - N/A   Haze
5:00 AM 75.2 °F - 69.8 °F 83% 29.92 in 1.9 mi East 3.5 mph - N/A   Haze
5:30 AM 74 °F - 71 °F 87% 29.86 in 1 mi East 4.6 mph - -   Haze
6:00 AM 75.2 °F - 71.6 °F 89% 29.92 in 1.9 mi East 6.9 mph - N/A   Haze
7:00 AM 77.0 °F - 71.6 °F 83% 29.95 in 1.9 mi East 8.1 mph - N/A   Haze
8:00 AM 78.8 °F - 71.6 °F 78% 29.95 in 1.9 mi East 6.9 mph - N/A   Haze
8:30 AM 81 °F - 72 °F 69% 29.90 in 1 mi ESE 6.9 mph - -   Haze
9:00 AM 80.6 °F 84.6 °F 71.6 °F 74% 29.98 in 1.9 mi ESE 6.9 mph - N/A   Haze
10:00 AM 84.2 °F 89.6 °F 71.6 °F 66% 29.98 in 2.5 mi ESE 8.1 mph - N/A   Haze
11:00 AM 86.0 °F 91.8 °F 71.6 °F 62% 29.98 in 2.5 mi ESE 9.2 mph - N/A   Haze
11:30 AM 88 °F - 71 °F 47% 29.88 in 2 mi ESE 6.9 mph - -   Haze
12:00 PM 89.6 °F 96.2 °F 71.6 °F 55% 29.95 in 2.5 mi SE 6.9 mph - N/A   Haze
1:00 PM 89.6 °F 94.7 °F 69.8 °F 52% 29.92 in 2.5 mi East 10.4 mph - N/A   Haze
2:00 PM 91.4 °F 95.4 °F 68.0 °F 46% 29.89 in 2.5 mi East 9.2 mph - N/A   Haze
2:30 PM 91 °F - 66 °F 34% 29.78 in 2 mi ESE 9.2 mph - -   Haze
3:00 PM 91.4 °F 95.4 °F 68.0 °F 46% 29.86 in 2.5 mi ESE 5.8 mph - N/A   Haze
4:00 PM 91.4 °F 93.2 °F 64.4 °F 41% 29.86 in 2.5 mi ENE 5.8 mph - N/A   Haze
5:00 PM 91.4 °F 94.0 °F 66.2 °F 43% 29.86 in 2.5 mi East 5.8 mph - N/A   Haze
6:00 PM 87.8 °F 90.4 °F 66.2 °F 49% 29.86 in 2.5 mi East 5.8 mph - N/A   Haze
8:00 PM 82.4 °F 85.4 °F 68.0 °F 62% 29.89 in 1.9 mi Calm Calm - N/A   Haze
8:30 PM 81 °F - 68 °F 56% 29.56 in 1 mi East 5.8 mph - -   Haze
9:00 PM 80.6 °F 83.2 °F 68.0 °F 65% 29.92 in 1.9 mi ESE 5.8 mph - N/A   Haze
10:00 PM 78.8 °F - 69.8 °F 74% 29.92 in 1.9 mi East 4.6 mph - N/A   Haze
11:00 PM 77.0 °F - 69.8 °F 78% 29.92 in 1.9 mi East 5.8 mph - N/A   Haze
11:30 PM 78 °F - 68 °F 65% 29.85 in 1 mi East 5.8 mph - -   Haze